Weather History for Springfield, CO

Change the Weather History Date:

Thursday, April 26, 2012

  Actual Average Record
Temperature  
Mean Temperature 67 °F -  
Max Temperature 82 °F 70 °F 82 °F (2002)
Min Temperature 51 °F 40 °F 24 °F (2006)
Degree Days  
Heating Degree Days 0 11  
Month to date heating degree days 235 368  
Since 1 July heating degree days 4609 5061  
Cooling Degree Days 2 0  
Month to date cooling degree days 14 0  
Year to date cooling degree days 18 0  
Growing Degree Days 16 (Base 50)    
Moisture  
Dew Point 50 °F    
Average Humidity 65    
Maximum Humidity 97    
Minimum Humidity 33    
Precipitation  
Precipitation 0.04 in 0.04 in 0.09 in (2013)
Month to date precipitation 0.79 1.11  
Year to date precipitation 1.25 3.05  
Sea Level Pressure  
Sea Level Pressure 29.73 in    
Wind  
Wind Speed 16 mph (SSE)    
Max Wind Speed 41 mph    
Max Gust Speed 52 mph    
T = Trace of Precipitation, MM = Missing Value Source: NWS Daily Summary

Daily Weather History Graph

Daily Weather History Graph

Search for Another Location

Airport:

Trip Planner

Search our weather history database for the weather conditions in past years. The results will help you decide how hot, cold, wet, or windy it might be!

Date:

Astronomy

Apr. 26, 2012 Rise Set
Actual Time 6:00 AM MDT 7:35 PM MDT
Civil Twilight 5:33 AM MDT 8:03 PM MDT
Nautical Twilight 4:59 AM MDT 8:37 PM MDT
Astronomical Twilight 4:24 AM MDT 9:12 PM MDT
Moon 9:45 AM MDT (4/26) No Moon Set
Length of Visible Light 14h 30m
Length of Day
13h 35m
Waxing Crescent, 25% of the Moon is Illuminated
Apr 26
Waxing Crescent
Apr 29
First Quarter
May 5
Full
May 12
Last Quarter
May 20
New

Hourly Weather History & Observations

Time (MDT) Temp. Heat Index Dew Point Humidity Pressure Visibility Wind Dir Wind Speed Gust Speed Precip Events Conditions
12:56 AM 62.1 °F - 46.9 °F 58% 29.79 in - SSE 8.1 mph - N/A   Unknown
1:56 AM 60.1 °F - 46.9 °F 62% 29.78 in - SE 5.8 mph - N/A   Unknown
2:56 AM 59.0 °F - 46.9 °F 64% 29.78 in - SE 4.6 mph - N/A   Unknown
4:56 AM 52.0 °F - 45.0 °F 77% 29.82 in - SW 5.8 mph - N/A   Unknown
5:56 AM 52.0 °F - 46.0 °F 80% 29.85 in - Calm Calm - N/A   Unknown
6:56 AM 57.0 °F - 48.0 °F 72% 29.84 in - ESE 8.1 mph - N/A   Unknown
7:56 AM 62.1 °F - 48.9 °F 62% 29.86 in - South 5.8 mph - N/A   Unknown
8:56 AM 66.9 °F - 46.0 °F 47% 29.86 in - South 17.3 mph - N/A   Unknown
9:56 AM 68.0 °F - 46.9 °F 47% 29.88 in - SSE 13.8 mph - N/A   Unknown
10:56 AM 72.0 °F - 48.0 °F 43% 29.85 in - SSE 18.4 mph - N/A   Unknown
11:56 AM 77.0 °F - 52.0 °F 42% 29.81 in - South 19.6 mph 25.3 mph N/A   Unknown
12:56 PM 79.0 °F - 53.1 °F 40% 29.78 in - South 16.1 mph 24.2 mph N/A   Unknown
1:56 PM 80.1 °F 79.9 °F 53.1 °F 39% 29.76 in - South 21.9 mph 31.1 mph N/A   Unknown
2:56 PM 79.0 °F - 52.0 °F 39% 29.70 in - SSE 19.6 mph 31.1 mph N/A   Unknown
3:56 PM 79.0 °F - 48.9 °F 35% 29.65 in - SSE 23.0 mph 33.4 mph N/A   Unknown
4:56 PM 81.0 °F - 52.0 °F 36% 29.63 in - SSE 23.0 mph 29.9 mph N/A   Unknown
5:56 PM 80.1 °F - 48.0 °F 32% 29.62 in - SSE 21.9 mph - N/A   Unknown
6:56 PM 66.0 °F - 55.9 °F 70% 29.64 in - SSE 19.6 mph - N/A   Unknown
7:56 PM 64.0 °F - 54.0 °F 70% 29.63 in - South 21.9 mph 29.9 mph N/A   Unknown
8:56 PM 63.0 °F - 52.0 °F 67% 29.61 in - SSE 24.2 mph 29.9 mph N/A   Unknown
9:56 PM 61.0 °F - 53.1 °F 75% 29.60 in - SSE 19.6 mph 26.5 mph N/A   Unknown
10:56 PM 60.1 °F - 55.0 °F 83% 29.57 in - SSE 15.0 mph 23.0 mph 0.03 in   Unknown
11:56 PM 61.0 °F - 59.0 °F 93% 29.52 in - SSE 26.5 mph 34.5 mph N/A   Unknown